Stations météo

réclame
Mon MeteoGroup
Altnaharra, Grande-Bretagne (3044): Température de l'air & dewpoint: 24.10.2020 07:00:00 - 30.10.2020 07:00:00 (GMT)Altnaharra, Grande-Bretagne (3044): Température de l'air -20cm & Température de l'air -100cm: 24.10.2020 07:00:00 - 30.10.2020 07:00:00 (GMT)Altnaharra, Grande-Bretagne (3044): Vitesse du vent & gusts: 24.10.2020 07:00:00 - 30.10.2020 07:00:00 (GMT)Altnaharra, Grande-Bretagne (3044): Direction du vent: 24.10.2020 07:00:00 - 30.10.2020 07:00:00 (GMT)Altnaharra, Grande-Bretagne (3044): reduced air pressure: 24.10.2020 07:00:00 - 30.10.2020 07:00:00 (GMT)Altnaharra, Grande-Bretagne (3044): visibility: 24.10.2020 07:00:00 - 30.10.2020 07:00:00 (GMT)Altnaharra, Grande-Bretagne (3044): Ensoleillement: 24.10.2020 07:00:00 - 30.10.2020 07:00:00 (GMT)Altnaharra, Grande-Bretagne (3044): Quantités de précipitations: 24.10.2020 07:00:00 - 30.10.2020 07:00:00 (GMT)
Date & Time tt [°C] td [°C] tt -20cm [°C] tt -100cm [°C] ff [km/h] ff [knt] fx [km/h] fx [knt] dd ppp [hPa] vv [km] sd [min] rr [mm]
30.10.2020 07:00:00 8,3 5,2 - - 18 10 48 26 SW 998,1 45 0 -
30.10.2020 06:00:00 8,8 7,1 - - 28 15 54 29 WSW 996,9 3,5 0 0,0
30.10.2020 05:00:00 9,7 8,2 - - 34 18 59 32 WSW 995,2 21 0 0,2
30.10.2020 04:00:00 11,3 9,6 - - 16 9 - - SSW 992,8 22 0 0,2
30.10.2020 03:00:00 12,5 11,2 - - 18 10 - - S 990,7 5 0 0,2
30.10.2020 02:00:00 12,6 11,2 - - 11 6 - - S 989,8 50 0 0,0
30.10.2020 01:00:00 12,4 10,9 - - 18 10 - - S 989,3 8 0 0,0
30.10.2020 00:00:00 12,5 10,1 - - 22 12 - - S 988,9 30 - 0,2
29.10.2020 23:00:00 12,7 10,0 - - 16 9 - - S 988,8 50 0 0,0
29.10.2020 22:00:00 11,1 8,9 - - 11 6 - - ESE 989,2 50 0 0,2
29.10.2020 21:00:00 10,4 7,8 - - 11 6 - - N 989,7 45 0 0,0
29.10.2020 20:00:00 10,0 7,7 - - 9 5 - - W 990,4 45 0 0,4
29.10.2020 19:00:00 8,9 6,9 - - 24 13 52 28 SE 991,3 19 0 0,6
29.10.2020 18:00:00 8,5 6,8 - - 21 11 - - NNE 992,5 22 0 0,2
29.10.2020 17:00:00 8,1 6,3 - - 22 12 - - N 993,8 29 0 0,0
29.10.2020 16:00:00 9,2 5,4 - - 26 14 63 34 NNE 994,5 35 0 0,0
29.10.2020 15:00:00 8,9 4,4 - - 22 12 - - E 995,3 40 0 0,0
29.10.2020 14:00:00 9,5 3,5 - - 9 5 - - NW 996,4 50 0 0,0
29.10.2020 13:00:00 9,5 4,4 - - 13 7 - - WNW 997,3 24 0 0,0
29.10.2020 12:00:00 8,7 4,6 - - 16 9 - - E 998,0 40 6 0,0
29.10.2020 11:00:00 9,2 4,3 - - 13 7 - - E 998,4 28 18 0,0
29.10.2020 10:00:00 8,5 4,6 - - 4 2 - - W 998,8 35 48 0,0
29.10.2020 09:00:00 7,1 4,6 8,2 9,5 5 3 - - S 998,4 30 30 0,0
29.10.2020 08:00:00 5,2 4,1 - - 4 2 - - SW 998,1 24 0 0,0
29.10.2020 07:00:00 5,7 3,9 - - 8 4 - - SE 997,7 30 0 0,0
29.10.2020 06:00:00 7,0 5,2 - - 15 8 - - S 996,9 40 0 0,0
29.10.2020 05:00:00 6,8 4,8 - - 11 6 - - S 996,3 30 0 0,0
29.10.2020 04:00:00 7,8 6,2 - - 13 7 - - SSW 995,3 15 0 0,0
29.10.2020 03:00:00 7,1 5,8 - - 9 5 - - SSE 994,3 40 0 0,8
29.10.2020 02:00:00 7,0 5,7 - - 16 9 - - S 993,8 45 0 0,0
29.10.2020 01:00:00 6,8 4,5 - - 15 8 - - S 993,0 45 0 0,0
29.10.2020 00:00:00 5,7 3,8 - - 5 3 - - WSW 992,2 40 - 0,0
28.10.2020 23:00:00 6,8 4,0 - - 11 6 - - S 991,3 40 0 0,0
28.10.2020 22:00:00 6,6 4,3 - - 8 4 - - WSW 990,5 50 0 0,0
28.10.2020 21:00:00 7,5 4,8 - - 13 7 - - S 989,6 45 0 0,0
28.10.2020 20:00:00 7,8 5,2 - - 13 7 - - S 989,1 50 0 0,0
28.10.2020 19:00:00 7,3 4,9 - - 11 6 - - S 988,4 50 0 0,0
28.10.2020 18:00:00 7,3 4,8 - - 9 5 - - S 987,6 50 0 0,0
28.10.2020 17:00:00 7,7 4,8 - - 8 4 - - S 986,8 50 0 0,0
28.10.2020 16:00:00 9,4 5,2 - - 15 8 - - S 986,1 50 0 0,0
28.10.2020 15:00:00 9,8 5,4 - - 13 7 - - S 985,7 50 0 0,0
28.10.2020 14:00:00 9,5 5,8 - - 4 2 - - ESE 985,5 40 6 0,0
28.10.2020 13:00:00 10,3 5,6 - - 11 6 - - S 985,1 45 36 0,0
28.10.2020 12:00:00 9,5 5,4 - - 15 8 - - S 984,8 40 24 0,0
28.10.2020 11:00:00 9,9 5,3 - - 16 9 - - SSE 984,5 29 60 0,0
28.10.2020 10:00:00 8,5 5,2 - - 8 4 - - W 984,2 50 60 0,0
28.10.2020 09:00:00 6,5 4,5 8,4 9,7 4 2 - - W 983,8 50 36 0,0
28.10.2020 08:00:00 4,7 3,1 - - 5 3 - - SSW 983,6 50 0 0,0
28.10.2020 07:00:00 5,4 3,1 - - 9 5 - - S 982,9 50 0 0,0
28.10.2020 06:00:00 5,2 3,7 - - 13 7 - - S 982,8 45 0 0,0
28.10.2020 05:00:00 4,1 2,5 - - 4 2 - - W 982,7 45 0 0,0
28.10.2020 04:00:00 4,9 2,9 - - 5 3 - - SSW 982,7 50 0 0,0
28.10.2020 03:00:00 6,0 3,4 - - 15 8 - - S 982,6 22 0 0,0
28.10.2020 02:00:00 6,1 4,4 - - 9 5 - - S 982,8 23 0 0,0
28.10.2020 01:00:00 6,3 4,2 - - 8 4 - - S 982,9 26 0 0,0
28.10.2020 00:00:00 6,4 4,5 - - 4 2 - - SSW 983,0 30 - 0,0
27.10.2020 23:00:00 6,1 4,5 - - 4 2 - - ESE 982,9 26 0 0,2
27.10.2020 22:00:00 6,6 4,9 - - 11 6 - - S 982,8 35 0 0,2
27.10.2020 21:00:00 7,0 4,3 - - 13 7 - - SSW 982,9 35 0 0,2
27.10.2020 20:00:00 7,3 6,1 - - 11 6 - - S 982,8 26 0 1,0
27.10.2020 19:00:00 7,7 6,4 - - 8 4 - - SSE 982,4 12 0 0,4
27.10.2020 18:00:00 7,8 5,8 - - 5 3 - - NE 982,5 13 0 0,6
27.10.2020 17:00:00 8,5 4,8 - - 13 7 - - ESE 982,6 40 0 0,0
27.10.2020 16:00:00 9,7 3,8 - - 18 10 52 28 E 982,5 50 0 0,0
27.10.2020 15:00:00 9,0 4,7 - - 26 14 - - E 983,1 50 0 0,0
27.10.2020 14:00:00 8,6 4,6 - - 22 12 48 26 E 984,1 50 0 0,0
27.10.2020 13:00:00 8,4 5,3 - - 26 14 - - ENE 984,8 50 0 0,0
27.10.2020 12:00:00 8,0 6,9 - - 4 2 - - SSW 985,9 50 36 0,0
27.10.2020 11:00:00 6,5 6,5 - - 2 1 - - SW 986,9 0,7 12 0,0
27.10.2020 10:00:00 5,5 5,5 - - 2 1 - - ENE 987,8 1,0 6 0,0
27.10.2020 09:00:00 3,5 3,5 8,5 9,7 4 2 - - NW 988,3 50 6 0,0
27.10.2020 08:00:00 2,6 2,4 - - 5 3 - - W 989,0 0,7 0 0,0
27.10.2020 07:00:00 4,2 4,2 - - 2 1 - - SSE 989,1 2,4 0 0,0
27.10.2020 06:00:00 5,6 5,6 - - 4 2 - - WNW 989,1 2,1 0 0,0
27.10.2020 05:00:00 5,7 5,7 - - 2 1 - - E 989,5 0,5 0 0,4
27.10.2020 04:00:00 6,7 6,7 - - 2 1 - - ESE 989,8 3,4 0 0,2
27.10.2020 03:00:00 5,5 5,5 - - 4 2 - - E 990,0 40 0 0,0
27.10.2020 02:00:00 5,8 5,8 - - 2 1 - - NW 990,4 30 0 0,0
27.10.2020 01:00:00 4,4 4,4 - - 2 1 - - SE 990,7 17 0 0,2
27.10.2020 00:00:00 5,4 5,0 - - 2 1 - - WSW 990,8 45 - 0,0
26.10.2020 23:00:00 7,8 7,7 - - 8 4 - - WSW 990,7 28 0 0,4
26.10.2020 22:00:00 7,4 7,2 - - 8 4 - - WSW 990,8 26 0 0,2
26.10.2020 21:00:00 6,4 6,2 - - 4 2 - - WSW 990,6 20 0 0,0
26.10.2020 20:00:00 6,7 6,4 - - 4 2 - - W 990,1 40 0 0,0
26.10.2020 19:00:00 7,3 6,9 - - 8 4 - - WSW 989,9 30 0 0,8
26.10.2020 18:00:00 7,4 6,3 - - 2 1 - - SSW 989,2 45 0 0,0
26.10.2020 17:00:00 8,2 6,6 - - 2 1 - - ESE 988,6 50 0 0,0
26.10.2020 16:00:00 9,3 6,8 - - 9 5 - - NW 987,8 50 6 0,0
26.10.2020 15:00:00 9,7 6,4 - - 13 7 - - WNW 987,1 50 0 0,0
26.10.2020 14:00:00 10,2 6,2 - - 16 9 - - WNW 986,5 50 0 0,0
26.10.2020 13:00:00 10,6 6,2 - - 15 8 - - NW 985,5 50 12 0,0
26.10.2020 12:00:00 10,4 6,2 - - 5 3 - - WSW 984,9 50 42 0,0
26.10.2020 11:00:00 10,8 7,0 - - 4 2 - - SSE 984,4 50 54 0,0
26.10.2020 10:00:00 6,9 6,0 - - 4 2 - - WNW 983,9 50 36 0,0
26.10.2020 09:00:00 4,1 3,7 8,5 9,7 2 1 - - W 983,1 50 30 0,0
26.10.2020 08:00:00 2,4 2,0 - - 4 2 - - WNW 982,5 50 0 0,0
26.10.2020 07:00:00 4,5 3,9 - - 5 3 - - NW 981,3 50 0 0,0
26.10.2020 06:00:00 5,8 4,4 - - 4 2 - - N 980,5 50 0 0,2
26.10.2020 05:00:00 7,7 4,6 - - 5 3 - - WSW 979,6 50 0 0,0
26.10.2020 04:00:00 7,6 4,6 - - 15 8 - - SSE 979,1 50 0 0,0
26.10.2020 03:00:00 7,8 4,4 - - 5 3 - - N 979,2 50 0 0,0
26.10.2020 02:00:00 8,8 5,1 - - 22 12 - - SE 979,0 50 0 0,0
26.10.2020 01:00:00 9,4 4,9 - - 26 14 - - SE 978,9 50 0 0,0
26.10.2020 00:00:00 9,5 4,9 - - 29 16 54 29 SE 979,1 50 - 0,0
25.10.2020 23:00:00 9,5 4,9 - - 28 15 57 31 SE 978,8 50 0 0,0
25.10.2020 22:00:00 9,2 4,8 - - 28 15 46 25 SE 978,7 50 0 0,0
25.10.2020 21:00:00 9,0 5,0 - - 21 11 46 25 SE 978,6 50 0 0,0
25.10.2020 20:00:00 8,4 4,6 - - 22 12 46 25 SE 978,3 50 0 0,0
25.10.2020 19:00:00 8,2 4,6 - - 31 17 46 25 ESE 977,8 50 0 0,0
25.10.2020 18:00:00 8,6 4,8 - - 22 12 - - SE 977,9 50 0 0,0
25.10.2020 17:00:00 8,4 3,7 - - 26 14 - - SSE 978,1 50 0 0,0
25.10.2020 16:00:00 8,6 4,2 - - 22 12 48 26 SSE 977,7 50 0 0,0
25.10.2020 15:00:00 9,2 4,8 - - 24 13 46 25 SE 977,5 50 0 0,0
25.10.2020 14:00:00 8,5 4,2 - - 26 14 - - ESE 977,7 50 0 0,2
25.10.2020 13:00:00 9,2 3,2 - - 16 9 - - SE 978,0 50 0 0,0
25.10.2020 12:00:00 9,3 3,1 - - 22 12 - - SE 978,4 50 36 0,0
25.10.2020 11:00:00 9,4 3,5 - - 26 14 - - ESE 978,6 35 60 0,0
25.10.2020 10:00:00 8,5 3,8 - - 26 14 - - ESE 979,0 40 6 0,0
25.10.2020 09:00:00 8,1 3,0 8,7 9,9 22 12 - - ESE 978,9 50 18 0,0
25.10.2020 08:00:00 7,5 3,0 - - 21 11 - - SE 978,6 45 0 0,0
25.10.2020 07:00:00 7,2 2,4 - - 11 6 - - SSE 978,3 50 0 0,0
25.10.2020 06:00:00 6,7 2,5 - - 18 10 - - E 978,4 50 0 0,0
25.10.2020 05:00:00 7,9 2,4 - - 18 10 - - SE 978,6 50 0 0,0
25.10.2020 04:00:00 7,4 2,3 - - 21 11 46 25 SE 978,6 50 0 0,0
25.10.2020 03:00:00 8,1 2,4 - - 26 14 - - SE 978,5 50 0 0,0
25.10.2020 02:00:00 7,6 1,9 - - 21 11 - - SE 979,0 45 0 0,0
25.10.2020 01:00:00 6,1 2,1 - - 5 3 - - SSE 979,8 50 0 0,0
25.10.2020 00:00:00 - - - - - - - - - - - - -
24.10.2020 23:00:00 6,6 2,5 - - 24 13 - - ESE 980,4 50 0 0,0
24.10.2020 22:00:00 7,4 2,0 - - 16 9 - - SE 980,4 45 0 0,0
24.10.2020 21:00:00 5,5 2,5 - - 13 7 - - ENE 980,9 40 0 0,0
24.10.2020 20:00:00 7,0 1,7 - - 18 10 - - SE 981,3 50 0 0,0
24.10.2020 19:00:00 6,5 1,6 - - 24 13 - - SSE 981,9 50 0 0,0
24.10.2020 18:00:00 6,2 1,5 - - 24 13 46 25 SSE 981,7 50 0 0,0
24.10.2020 17:00:00 7,2 1,4 - - 31 17 50 27 S 982,3 50 6 0,0
24.10.2020 16:00:00 7,8 2,3 - - 34 18 57 31 SSE 982,4 50 36 0,0
24.10.2020 15:00:00 8,9 3,2 - - 28 15 - - SSE 982,7 35 36 0,0
24.10.2020 14:00:00 8,8 2,5 - - 24 13 54 29 S 982,7 45 36 0,0
24.10.2020 13:00:00 10,8 3,2 - - 22 12 50 27 S 982,4 25 60 0,0
24.10.2020 12:00:00 11,3 3,8 - - 24 13 - - S 981,8 20 60 0,0
24.10.2020 11:00:00 9,9 4,8 - - 22 12 - - SSE 981,7 28 48 0,0
24.10.2020 10:00:00 7,6 4,7 - - 18 10 - - SE 982,1 50 0 0,0
24.10.2020 09:00:00 6,2 5,0 9,0 10,0 8 4 - - SSE 982,0 45 0 1,0
24.10.2020 08:00:00 6,4 5,1 - - 9 5 67 36 S 983,1 11 0 1,8
24.10.2020 07:00:00 9,6 6,0 - - 48 26 85 46 ESE 980,4 26 0 0,2

tt = Température de l'air
td = dewpoint
tt -20cm = Température de l'air -20cm
tt -100cm = Température de l'air -100cm
ff = Vitesse du vent
fx = gusts
dd = Direction du vent
ppp = reduced air pressure
vv = visibility
sd = Ensoleillement
rr = Quantités de précipitations

stations d'obs. à proximité